Weather History for Akron Canton, OH

Change the Weather History Date:

Thursday, November 28, 2013

  Actual Average Record
Temperature  
Mean Temperature 22 °F 37 °F  
Max Temperature 28 °F 44 °F 68 °F (1990)
Min Temperature 16 °F 30 °F 5 °F (1930)
Degree Days  
Heating Degree Days 43 28  
Month to date heating degree days 716 646  
Since 1 July heating degree days 1180 1201  
Cooling Degree Days 0 0  
Month to date cooling degree days 0 0  
Year to date cooling degree days 829 652  
Moisture  
Dew Point 15 °F    
Average Humidity 68    
Maximum Humidity 78    
Minimum Humidity 58    
Precipitation  
Precipitation T in 0.10 in 1.01 in (1968)
Month to date precipitation 3.14 3.08  
Year to date precipitation 38.70 36.56  
Snow  
Snow T in 0.10 in - ()
Month to date snowfall 10.7 2.6  
Since 1 July snowfall 10.7 3.0  
Since 1 September snowfall 10.7 3.0  
Snow Depth 5.00 in    
Sea Level Pressure  
Sea Level Pressure 30.34 in    
Wind  
Wind Speed 9 mph (WSW)    
Max Wind Speed 14 mph    
Max Gust Speed 14 mph    
Visibility 10 miles    
Events Snow    
T = Trace of Precipitation, MM = Missing Value Source: NWS Daily Summary

Daily Weather History Graph

Daily Weather History Graph

Search for Another Location

Airport:

Trip Planner

Search our weather history database for the weather conditions in past years. The results will help you decide how hot, cold, wet, or windy it might be!

Date:

Astronomy

Nov. 28, 2013 Rise Set
Actual Time 7:28 AM EST 4:59 PM EST
Civil Twilight 6:57 AM EST 5:29 PM EST
Nautical Twilight 6:23 AM EST 6:03 PM EST
Astronomical Twilight 5:50 AM EST 6:36 PM EST
Moon 2:27 AM EST (11/28) 2:09 PM EST (11/28)
Length of Visible Light 10h 31m
Length of Day
9h 31m
Waning Crescent, 22% of the Moon is Illuminated
Nov 28
Waning Crescent
Dec 2
New
Dec 9
First Quarter
Dec 17
Full
Dec 25
Last Quarter

Hourly Weather History & Observations

Time (EST) Temp. Windchill Dew Point Humidity Pressure Visibility Wind Dir Wind Speed Gust Speed Precip Events Conditions
12:51 AM 22.5 °F 12.4 °F 12.2 °F 65% 30.18 in 10.0 mi WNW 9.2 mph - 0.00 in   Overcast
1:51 AM 19.8 °F 9.1 °F 10.9 °F 69% 30.21 in 10.0 mi West 9.2 mph - N/A   Overcast
2:51 AM 17.1 °F 5.8 °F 9.1 °F 71% 30.25 in 10.0 mi West 9.2 mph - N/A   Mostly Cloudy
3:51 AM 16.2 °F 6.5 °F 9.1 °F 74% 30.26 in 10.0 mi West 6.9 mph - N/A   Scattered Clouds
4:51 AM 16.2 °F 4.7 °F 9.1 °F 74% 30.29 in 10.0 mi WSW 9.2 mph - N/A   Partly Cloudy
5:51 AM 16.2 °F 7.6 °F 9.1 °F 74% 30.32 in 10.0 mi WSW 5.8 mph - N/A   Partly Cloudy
6:51 AM 15.8 °F 7.2 °F 8.8 °F 74% 30.34 in 10.0 mi WSW 5.8 mph - N/A   Mostly Cloudy
7:51 AM 18.0 °F 11.1 °F 10.0 °F 71% 30.36 in 10.0 mi West 4.6 mph - N/A   Mostly Cloudy
8:51 AM 19.9 °F 13.4 °F 10.0 °F 65% 30.39 in 10.0 mi WSW 4.6 mph - N/A   Mostly Cloudy
9:51 AM 22.1 °F 12.0 °F 10.0 °F 60% 30.40 in 10.0 mi West 9.2 mph - N/A   Mostly Cloudy
10:51 AM 26.1 °F 18.4 °F 14.0 °F 60% 30.39 in 10.0 mi Variable 6.9 mph - 0.00 in Snow Light Snow
11:51 AM 25.0 °F 15.5 °F 12.0 °F 58% 30.38 in 10.0 mi WSW 9.2 mph - 0.00 in Snow Light Snow
12:51 PM 27.0 °F 16.1 °F 16.0 °F 63% 30.35 in 10.0 mi SW 12.7 mph - 0.00 in   Overcast
1:51 PM 28.0 °F 19.3 °F 16.0 °F 61% 30.33 in 10.0 mi SSW 9.2 mph - N/A   Overcast
2:51 PM 27.0 °F 15.6 °F 19.0 °F 72% 30.32 in 10.0 mi SSW 13.8 mph - N/A   Overcast
3:51 PM 28.0 °F 17.0 °F 19.0 °F 69% 30.33 in 10.0 mi SSW 13.8 mph - N/A   Overcast
4:51 PM 26.2 °F 14.7 °F 18.1 °F 71% 30.34 in 10.0 mi SSW 13.8 mph - N/A   Overcast
5:51 PM 27.0 °F 16.7 °F 19.0 °F 72% 30.37 in 10.0 mi SW 11.5 mph - N/A   Overcast
6:51 PM 27.3 °F 17.1 °F 19.4 °F 72% 30.40 in 10.0 mi SW 11.5 mph - N/A   Overcast
7:51 PM 27.0 °F 19.5 °F 20.7 °F 77% 30.41 in 10.0 mi SW 6.9 mph - N/A   Overcast
8:51 PM 27.3 °F 19.9 °F 20.3 °F 75% 30.41 in 10.0 mi WSW 6.9 mph - N/A   Overcast
9:51 PM 26.4 °F 18.9 °F 19.9 °F 77% 30.42 in 10.0 mi WSW 6.9 mph - N/A   Overcast
10:51 PM 26.2 °F 17.1 °F 20.3 °F 78% 30.42 in 10.0 mi SW 9.2 mph - N/A   Overcast
11:51 PM 26.2 °F 20.7 °F 19.9 °F 77% 30.43 in 10.0 mi SW 4.6 mph - N/A   Overcast